SCP
1 3 2 1 0 0 0 0 0 0 0 0 0 0 0 0 0 0 0 0 0 0 0 0 0 0 0 0 0 0 0 0 0 0 0 0 0 0
1 1 1 1 1 0 0 0 0 0 0 0 0 0 0 0 0 0 0 0 0 0 0 0 0 0 0 0 0 0 0 0 0 0 0 0 0 0
2 1 1 2 1 1 0 0 0 0 0 0 0 0 0 0 0 0 0 0 0 0 0 0 0 0 0 0 0 0 0 0 0 0 0 0 0 0
1 1 1 1 2 1 1 0 0 0 0 0 0 0 0 0 0 0 0 0 0 0 0 0 0 0 0 0 0 0 0 0 0 0 0 0 0 0
1 1 1 1 1 1 1 1 1 1 0 0 0 0 0 0 0 0 0 0 0 0 0 0 0 0 0 0 0 0 0 0 0 0 0 0 0 0
0 0 1 1 1 1 1 1 1 1 0 0 0 0 0 0 0 0 0 0 0 0 0 0 0 0 0 0 0 0 0 0 0 0 0 0 0 0
0 0 0 0 0 0 0 0 0 0 0 0 0 0 0 0 0 0 0 0 -0 0 0 0 0 0 0 0 0 0 0 0 0 0 0 0 0 0
0 0 0 0 0 0 0 0 0 0 0 0 0 0 0 0 0 0 0 0 -0 -0 0 0 0 0 0 0 0 0 0 0 0 0 0 0 0 0
0 0 0 0 0 0 0 0 0 0 0 0 0 0 0 0 0 0 0 0 -0 -0 -0 -0 -0 0 0 0 0 0 0 0 0 0 0 0 0 0
0 0 0 0 0 0 0 0 0 0 0 0 0 0 0 0 0 0 0 -0 -0 -0 0 -0 0 0 0 0 0 0 0 0 0 0 0 0 0 0
0 0 0 0 0 0 0 0 0 0 0 0 0 0 0 0 0 0 0 0 0 0 0 0 0 0 0 0 0 0 0 0 0 0 0 0 0 0
0 0 0 0 0 0 0 0 0 0 0 -0 -0 0 0 0 0 0 0 0 0 0 -0 0 0 0 0 0 0 0 0 0 0 0 0 0 0 0
0 0 0 0 0 0 0 0 0 0 0 0 0 0 0 0 0 0 0 0 0 0 0 0 0 0 0 0 0 0 0 0 0 0 0 0 0 0
0 0 0 0 0 0 0 0 0 0 0 0 0 0 0 0 0 0 0 0 0 0 0 0 0 0 0 0 0 0 0 0 0 0 0 0 0 0
0 0 0 0 0 0 0 0 0 0 0 0 0 0 0 0 0 0 0 0 0 0 0 0 0 0 0 0 0 0 0 0 0 0 0 0 0 0
0 0 0 0 0 0 0 0 0 0 0 0 0 0 0 0 0 0 0 0 0 0 0 0 0 0 0 0 0 0 0 0 0 0 0 0 0 0
0 0 0 0 0 0 0 0 0 0 0 0 0 0 0 0 0 0 0 0 0 0 0 0 0 0 0 0 0 0 0 0 0 0 0 0 0 0
0 0 -0 0 0 0 0 -0 -0 0 0 0 0 0 0 0 0 0 0 0 0 0 0 0 0 0 0 0 0 0 0 0 0 0 0 0 0 0
0 0 -0 -0 0 0 0 -0 0 0 0 0 0 0 0 0 0 0 0 0 0 0 0 0 0 -0 0 0 0 0 0 0 0 0 0 0 0 0
0 -0 -0 0 0 0 0 0 0 0 0 0 0 0 0 0 0 0 0 0 0 0 0 -0 -0 -0 0 0 0 0 0 0 0 0 0 0 0 0
-0 0 0 0 0 0 0 0 0 0 0 0 0 0 0 0 0 0 0 0 -0 0 0 0 0 0 0 0 0 0 0 0 0 0 0 0 0 0
0 0 0 0 0 0 0 0 0 0 0 -0 0 -0 0 0 0 0 0 0 0 0 0 0 0 0 0 0 0 0 0 0 0 0 0 0 0 0
0 0 0 0 0 0 0 0 -0 -0 -0 -0 0 -0 -0 -0 -0 -0 0 0 -0 0 0 0 0 0 0 0 0 0 0 0 0 0 0 0 0 0
Wind_Speed_500mb
50 50 55 58 56 53 52 50 49 50 54 57 49 54 50 47 56 55 55 44 21 34 35 35 35 40 42 44 47 53 60 60 57 56 54 51 48 45
63 66 67 66 63 55 52 57 60 57 63 58 63 53 47 40 41 55 57 44 52 65 52 43 51 52 47 45 47 48 59 60 56 53 49 45 39 33
66 68 71 70 69 65 64 63 65 65 66 55 49 55 59 66 72 60 63 59 52 48 56 51 49 48 48 47 47 49 55 61 59 53 49 44 37 30
86 87 85 80 81 79 83 85 82 77 75 84 75 68 62 51 43 44 46 60 63 55 54 57 61 63 56 51 49 54 59 63 63 54 50 45 35 31
77 82 87 85 84 82 86 81 73 71 73 74 69 49 57 61 71 76 71 49 53 55 55 53 55 59 66 61 53 57 63 65 62 55 55 47 39 33
74 74 72 76 88 91 89 86 90 88 87 84 83 80 75 74 63 60 52 50 51 54 56 54 59 61 57 59 59 58 68 66 61 56 54 46 40 36
80 80 77 70 73 72 75 87 90 87 83 78 78 71 68 71 61 43 48 54 62 67 61 54 56 57 65 69 65 58 58 60 59 52 48 43 41 38
92 97 98 96 91 86 81 76 78 86 86 82 76 71 68 56 54 51 51 60 73 65 47 54 51 57 48 38 39 40 46 50 54 51 45 42 40 39
102 104 105 102 98 92 97 91 76 72 81 94 96 86 79 82 82 66 61 66 79 79 65 67 48 51 39 31 27 33 39 45 48 48 45 42 40 40
104 105 104 107 106 106 104 104 97 94 78 67 77 99 99 93 82 72 72 71 80 70 64 62 54 40 40 39 31 31 30 31 35 39 41 41 41 43
76 77 76 80 87 89 92 90 98 114 107 93 67 65 82 84 85 77 71 53 59 61 52 50 42 53 54 43 30 25 24 30 36 39 40 40 40 41
80 80 77 79 72 66 67 73 91 93 93 106 102 78 66 65 60 51 57 61 61 57 37 32 24 47 49 38 36 25 23 23 27 30 30 30 29 29
74 71 67 66 63 55 52 66 81 85 87 76 85 73 78 74 65 52 60 64 62 58 46 22 21 45 29 45 27 17 20 26 26 22 23 25 26 24
58 61 62 61 62 61 64 64 50 52 65 63 66 63 65 65 59 52 59 59 49 49 35 35 38 27 23 40 34 34 27 20 13 13 16 20 24 24
55 55 53 59 56 59 57 51 45 52 63 69 51 64 58 68 68 60 52 48 49 43 42 41 22 25 39 31 35 46 39 30 16 10 11 15 23 26
48 52 57 55 47 48 44 47 42 36 53 47 39 44 47 50 56 59 47 43 40 39 45 42 32 31 32 29 31 32 27 14 11 5 5 12 17 26
54 56 50 41 38 37 38 28 23 26 36 43 50 49 50 49 49 45 52 48 45 45 49 40 41 40 36 28 25 27 23 16 11 12 10 13 20 25
62 61 48 35 33 32 28 35 37 43 48 46 54 54 49 45 42 53 43 41 42 51 61 51 32 32 34 32 24 26 22 20 21 17 15 18 23 27
44 44 43 34 27 29 37 39 47 43 47 45 36 37 40 34 39 34 33 65 51 62 59 44 46 39 41 32 28 26 17 17 20 25 24 21 23 31
36 36 35 30 37 38 30 44 44 40 39 37 37 36 33 46 48 45 51 68 67 78 64 47 52 46 36 33 30 28 26 18 18 25 29 30 30 37
19 20 24 32 35 31 32 32 35 37 40 36 37 40 42 49 45 41 59 81 76 63 54 47 41 34 26 27 21 16 16 23 23 22 33 38 41 41
6 24 24 28 34 38 32 36 30 31 34 33 33 31 38 40 42 59 61 52 50 43 45 47 38 36 30 19 10 10 19 26 29 28 33 40 47 48
11 23 29 27 19 30 38 29 23 28 28 33 32 34 41 47 51 54 43 55 53 49 49 51 47 38 27 19 12 17 23 29 34 36 38 31 38 18
Wind_Direction_500mb
265 263 264 271 274 273 262 267 275 287 287 287 284 290 295 295 285 288 301 300 308 282 278 265 262 260 259 261 257 249 245 243 247 249 259 260 258 254
259 260 261 265 269 266 260 259 267 275 278 281 284 288 290 301 290 288 291 292 271 273 272 274 282 272 261 256 257 254 244 240 239 250 255 248 244 251
261 262 260 260 261 260 263 265 265 268 275 276 274 277 282 284 289 289 283 288 294 274 270 277 279 272 263 258 251 250 242 238 239 248 243 234 241 244
260 260 261 259 258 259 262 263 262 262 265 274 277 278 282 293 293 285 288 294 286 282 263 265 270 271 265 264 255 243 238 234 239 239 231 230 240 241
270 268 266 264 262 260 255 259 262 265 268 268 269 265 273 276 278 282 291 289 281 283 282 258 263 268 261 261 258 242 234 232 231 232 226 232 238 243
267 266 268 267 266 267 263 259 258 259 259 262 268 271 275 283 284 282 277 293 293 286 281 266 269 268 265 263 261 248 233 232 230 226 222 232 237 243
264 262 260 261 260 261 266 262 260 259 258 257 260 263 265 269 269 265 275 281 283 289 290 274 263 262 265 263 262 242 229 222 216 213 221 233 235 243
274 270 268 264 260 258 258 259 266 262 260 255 256 254 252 258 271 284 285 287 293 287 297 278 264 263 261 252 238 223 217 216 213 216 228 231 239 243
276 275 274 272 270 266 263 259 261 260 258 260 256 253 255 258 266 273 279 282 285 287 290 288 267 257 243 232 210 212 213 214 217 222 228 234 237 243
275 274 275 273 271 271 267 259 258 255 254 253 254 255 257 261 261 266 273 275 281 281 283 292 273 248 238 221 210 203 202 208 216 222 227 233 239 245
284 280 279 278 275 275 271 267 265 257 251 253 255 262 256 257 258 262 268 267 278 279 290 281 249 268 234 212 204 202 225 234 232 228 230 233 239 243
285 285 285 284 281 274 269 269 262 261 260 255 259 261 254 246 258 245 256 264 273 282 294 274 216 206 202 195 209 204 232 220 213 214 220 228 232 238
283 284 286 285 285 280 273 261 265 266 263 261 246 248 244 245 251 250 254 259 264 258 263 276 235 222 183 174 186 214 205 209 213 223 219 228 232 231
279 282 288 292 284 275 276 266 268 266 254 252 243 248 244 239 241 249 250 254 254 248 243 225 211 190 181 176 176 177 189 220 242 233 222 226 231 218
274 278 278 287 278 274 270 253 274 261 246 241 240 241 246 241 241 247 253 250 238 238 226 213 257 234 236 203 195 191 191 214 223 239 243 228 221 212
273 266 279 286 278 272 260 251 279 233 226 234 237 231 233 239 245 241 241 225 223 228 222 205 199 218 202 192 185 193 213 218 199 247 265 209 208 208
270 275 279 283 284 270 245 241 238 221 227 233 237 241 235 231 240 225 216 219 226 218 188 199 204 205 198 176 161 172 202 236 249 247 233 201 201 207
268 269 270 274 273 264 250 238 240 247 243 248 237 233 235 231 224 200 197 197 212 190 175 178 187 185 179 165 185 197 209 226 236 233 228 200 200 193
262 260 254 257 271 273 259 256 255 254 237 241 241 239 222 207 214 199 202 177 162 169 164 173 189 194 194 194 201 208 208 218 220 214 220 211 205 189
256 247 245 244 256 285 282 266 263 247 235 238 226 217 214 201 190 208 197 180 176 167 172 188 196 196 195 213 204 206 219 222 219 217 211 195 195 189
253 245 256 272 273 270 277 275 248 238 236 231 226 225 217 197 190 190 182 171 176 183 195 196 186 191 194 188 188 194 207 201 199 220 200 186 183 179
256 265 272 305 304 298 293 288 267 223 230 227 224 218 209 202 194 193 191 194 188 192 188 177 167 176 180 188 178 188 175 181 180 179 192 189 185 182
296 313 316 338 308 299 290 274 239 235 220 205 220 206 202 204 201 194 207 207 200 183 174 151 171 184 183 170 162 145 168 173 173 176 185 197 183 193
Wind_Speed_850mb
50 50 55 58 56 53 52 50 49 50 54 57 49 54 50 47 56 55 55 44 21 34 35 35 35 40 42 44 47 53 60 60 57 56 54 51 48 45
63 66 67 66 63 55 52 57 60 57 63 58 63 53 47 40 41 55 57 44 52 65 52 43 51 52 47 45 47 48 59 60 56 53 49 45 39 33
66 68 71 70 69 65 64 63 65 65 66 55 49 55 59 66 72 60 63 59 52 48 56 51 49 48 48 47 47 49 55 61 59 53 49 44 37 30
86 87 85 80 81 79 83 85 82 77 75 84 75 68 62 51 43 44 46 60 63 55 54 57 61 63 56 51 49 54 59 63 63 54 50 45 35 31
77 82 87 85 84 82 86 81 73 71 73 74 69 49 57 61 71 76 71 49 53 55 55 53 55 59 66 61 53 57 63 65 62 55 55 47 39 33
74 74 72 76 88 91 89 86 90 88 87 84 83 80 75 74 63 60 52 50 51 54 56 54 59 61 57 59 59 58 68 66 61 56 54 46 40 36
80 80 77 70 73 72 75 87 90 87 83 78 78 71 68 71 61 43 48 54 62 67 61 54 56 57 65 69 65 58 58 60 59 52 48 43 41 38
92 97 98 96 91 86 81 76 78 86 86 82 76 71 68 56 54 51 51 60 73 65 47 54 51 57 48 38 39 40 46 50 54 51 45 42 40 39
102 104 105 102 98 92 97 91 76 72 81 94 96 86 79 82 82 66 61 66 79 79 65 67 48 51 39 31 27 33 39 45 48 48 45 42 40 40
104 105 104 107 106 106 104 104 97 94 78 67 77 99 99 93 82 72 72 71 80 70 64 62 54 40 40 39 31 31 30 31 35 39 41 41 41 43
76 77 76 80 87 89 92 90 98 114 107 93 67 65 82 84 85 77 71 53 59 61 52 50 42 53 54 43 30 25 24 30 36 39 40 40 40 41
80 80 77 79 72 66 67 73 91 93 93 106 102 78 66 65 60 51 57 61 61 57 37 32 24 47 49 38 36 25 23 23 27 30 30 30 29 29
74 71 67 66 63 55 52 66 81 85 87 76 85 73 78 74 65 52 60 64 62 58 46 22 21 45 29 45 27 17 20 26 26 22 23 25 26 24
58 61 62 61 62 61 64 64 50 52 65 63 66 63 65 65 59 52 59 59 49 49 35 35 38 27 23 40 34 34 27 20 13 13 16 20 24 24
55 55 53 59 56 59 57 51 45 52 63 69 51 64 58 68 68 60 52 48 49 43 42 41 22 25 39 31 35 46 39 30 16 10 11 15 23 26
48 52 57 55 47 48 44 47 42 36 53 47 39 44 47 50 56 59 47 43 40 39 45 42 32 31 32 29 31 32 27 14 11 5 5 12 17 26
54 56 50 41 38 37 38 28 23 26 36 43 50 49 50 49 49 45 52 48 45 45 49 40 41 40 36 28 25 27 23 16 11 12 10 13 20 25
62 61 48 35 33 32 28 35 37 43 48 46 54 54 49 45 42 53 43 41 42 51 61 51 32 32 34 32 24 26 22 20 21 17 15 18 23 27
44 44 43 34 27 29 37 39 47 43 47 45 36 37 40 34 39 34 33 65 51 62 59 44 46 39 41 32 28 26 17 17 20 25 24 21 23 31
36 36 35 30 37 38 30 44 44 40 39 37 37 36 33 46 48 45 51 68 67 78 64 47 52 46 36 33 30 28 26 18 18 25 29 30 30 37
19 20 24 32 35 31 32 32 35 37 40 36 37 40 42 49 45 41 59 81 76 63 54 47 41 34 26 27 21 16 16 23 23 22 33 38 41 41
6 24 24 28 34 38 32 36 30 31 34 33 33 31 38 40 42 59 61 52 50 43 45 47 38 36 30 19 10 10 19 26 29 28 33 40 47 48
11 23 29 27 19 30 38 29 23 28 28 33 32 34 41 47 51 54 43 55 53 49 49 51 47 38 27 19 12 17 23 29 34 36 38 31 38 18
Wind_Direction_850mb
265 263 264 271 274 273 262 267 275 287 287 287 284 290 295 295 285 288 301 300 308 282 278 265 262 260 259 261 257 249 245 243 247 249 259 260 258 254
259 260 261 265 269 266 260 259 267 275 278 281 284 288 290 301 290 288 291 292 271 273 272 274 282 272 261 256 257 254 244 240 239 250 255 248 244 251
261 262 260 260 261 260 263 265 265 268 275 276 274 277 282 284 289 289 283 288 294 274 270 277 279 272 263 258 251 250 242 238 239 248 243 234 241 244
260 260 261 259 258 259 262 263 262 262 265 274 277 278 282 293 293 285 288 294 286 282 263 265 270 271 265 264 255 243 238 234 239 239 231 230 240 241
270 268 266 264 262 260 255 259 262 265 268 268 269 265 273 276 278 282 291 289 281 283 282 258 263 268 261 261 258 242 234 232 231 232 226 232 238 243
267 266 268 267 266 267 263 259 258 259 259 262 268 271 275 283 284 282 277 293 293 286 281 266 269 268 265 263 261 248 233 232 230 226 222 232 237 243
264 262 260 261 260 261 266 262 260 259 258 257 260 263 265 269 269 265 275 281 283 289 290 274 263 262 265 263 262 242 229 222 216 213 221 233 235 243
274 270 268 264 260 258 258 259 266 262 260 255 256 254 252 258 271 284 285 287 293 287 297 278 264 263 261 252 238 223 217 216 213 216 228 231 239 243
276 275 274 272 270 266 263 259 261 260 258 260 256 253 255 258 266 273 279 282 285 287 290 288 267 257 243 232 210 212 213 214 217 222 228 234 237 243
275 274 275 273 271 271 267 259 258 255 254 253 254 255 257 261 261 266 273 275 281 281 283 292 273 248 238 221 210 203 202 208 216 222 227 233 239 245
284 280 279 278 275 275 271 267 265 257 251 253 255 262 256 257 258 262 268 267 278 279 290 281 249 268 234 212 204 202 225 234 232 228 230 233 239 243
285 285 285 284 281 274 269 269 262 261 260 255 259 261 254 246 258 245 256 264 273 282 294 274 216 206 202 195 209 204 232 220 213 214 220 228 232 238
283 284 286 285 285 280 273 261 265 266 263 261 246 248 244 245 251 250 254 259 264 258 263 276 235 222 183 174 186 214 205 209 213 223 219 228 232 231
279 282 288 292 284 275 276 266 268 266 254 252 243 248 244 239 241 249 250 254 254 248 243 225 211 190 181 176 176 177 189 220 242 233 222 226 231 218
274 278 278 287 278 274 270 253 274 261 246 241 240 241 246 241 241 247 253 250 238 238 226 213 257 234 236 203 195 191 191 214 223 239 243 228 221 212
273 266 279 286 278 272 260 251 279 233 226 234 237 231 233 239 245 241 241 225 223 228 222 205 199 218 202 192 185 193 213 218 199 247 265 209 208 208
270 275 279 283 284 270 245 241 238 221 227 233 237 241 235 231 240 225 216 219 226 218 188 199 204 205 198 176 161 172 202 236 249 247 233 201 201 207
268 269 270 274 273 264 250 238 240 247 243 248 237 233 235 231 224 200 197 197 212 190 175 178 187 185 179 165 185 197 209 226 236 233 228 200 200 193
262 260 254 257 271 273 259 256 255 254 237 241 241 239 222 207 214 199 202 177 162 169 164 173 189 194 194 194 201 208 208 218 220 214 220 211 205 189
256 247 245 244 256 285 282 266 263 247 235 238 226 217 214 201 190 208 197 180 176 167 172 188 196 196 195 213 204 206 219 222 219 217 211 195 195 189
253 245 256 272 273 270 277 275 248 238 236 231 226 225 217 197 190 190 182 171 176 183 195 196 186 191 194 188 188 194 207 201 199 220 200 186 183 179
256 265 272 305 304 298 293 288 267 223 230 227 224 218 209 202 194 193 191 194 188 192 188 177 167 176 180 188 178 188 175 181 180 179 192 189 185 182
296 313 316 338 308 299 290 274 239 235 220 205 220 206 202 204 201 194 207 207 200 183 174 151 171 184 183 170 162 145 168 173 173 176 185 197 183 193